This demonstration page uses our WeatherBlox Daily Observations layout. Learn more.

Left ArrowRight Arrow

34.16533, -84.80231

Hourly Observations for September 12, 2017

Temp ( °F °C ) Dew Point ( °F °C ) Humidity (%) Winds ( mph kmh ) Pressure ( in mb ) Visibility ( mi km ) Precip ( " mm )
12:53 am 00:53 Cloudy with Light Rain 63 17.2 63 17.2 100 100 VRB 6 9 29.54 1000 5 8 0.01 0.25
1:25 am 01:25 Cloudy with Light Rain 62 16.7 62 16.7 100 100 NE 9 15 29.56 1001 6 10 0.03 0.76
1:53 am 01:53 Cloudy 63 17.2 63 17.2 100 100 ENE 8 13 29.52 1000 10 16 0.03 0.76
2:30 am 02:30 Cloudy with Light Rain 63 17.2 63 17.2 100 100 E 8 13 29.56 1001 5 8 0.03 0.76
2:44 am 02:44 Cloudy with Light Rain 63 17.2 63 17.2 100 100 VRB 6 9 29.56 1001 5 8 0.04 1.02
2:53 am 02:53 Cloudy with Light Rain 63 17.2 63 17.2 100 100 E 9 15 29.53 1000 6 10 0.05 1.27
3:53 am 03:53 Cloudy 63 17.2 63 17.2 100 100 E 9 15 29.53 1000 10 16 0.02 0.51
4:02 am 04:02 Cloudy 63 17.2 63 17.2 100 100 E 7 11 29.56 1001 10 16 0.00 0.00
4:27 am 04:27 Cloudy 62 16.7 62 16.7 100 100 VRB 6 9 29.56 1001 8 13 0.00 0.00
4:53 am 04:53 Cloudy with Light Rain 62 16.7 62 16.7 100 100 ESE 8 13 29.54 1000 5 8 0.01 0.25
5:13 am 05:13 Cloudy with Light Rain 62 16.7 62 16.7 100 100 ESE 9 15 29.59 1002 3 5 0.02 0.51
5:43 am 05:43 Cloudy with Mist and Fog 62 16.7 62 16.7 100 100 E 9 15 29.59 1002 6 10 0.04 1.02
5:53 am 05:53 Cloudy with Mist and Fog 61 16.1 61 16.1 100 100 VRB 7 11 29.57 1001 6 10 0.05 1.27
6:11 am 06:11 Cloudy with Light Rain 61 16.1 61 16.1 100 100 ESE 10 17 29.59 1002 4 6 0.00 0.03
6:18 am 06:18 Cloudy with Light Rain 60 15.6 60 15.6 100 100 SE 7 11 29.62 1003 3 5 0.01 0.25
6:53 am 06:53 Cloudy 60 15.6 60 15.6 100 100 VRB 6 9 29.60 1002 9 14 0.04 1.02
7:37 am 07:37 Cloudy 60 15.6 60 15.6 100 100 ESE 7 11 29.65 1004 8 13 0.00 0.00
7:53 am 07:53 Cloudy with Mist and Fog 60 15.6 60 15.6 100 100 VRB 7 11 29.63 1003 5 8 0.00 0.00
8:11 am 08:11 Cloudy with Mist and Fog 60 15.6 60 15.6 100 100 E 7 11 29.65 1004 4 6 0.00 0.00
8:18 am 08:18 Cloudy with Mist and Fog 60 15.6 60 15.6 100 100 ESE 7 11 29.65 1004 4 6 0.00 0.00
8:31 am 08:31 Cloudy with Mist and Fog 60 15.6 60 15.6 100 100 E 5 7 29.68 1005 4 6 0.00 0.00
8:39 am 08:39 Cloudy with Mist and Fog 60 15.6 60 15.6 100 100 ESE 7 11 29.68 1005 5 8 0.00 0.00
8:50 am 08:50 Cloudy with Mist and Fog 61 16 61 16 100 100 VRB 7 11 29.68 1005 4 6 0.00 0.00
8:53 am 08:53 Cloudy with Mist and Fog 60 15.6 60 15.6 100 100 ESE 7 11 29.65 1004 4 6 0.00 0.00
9:00 am 09:00 Cloudy with Mist and Fog 60 15.6 60 15.6 100 100 ESE 8 13 29.68 1005 3 5 0.00 0.00
9:13 am 09:13 Cloudy with Mist and Fog 60 15.6 60 15.6 100 100 ESE 6 9 29.68 1005 3 5 0.00 0.00
9:30 am 09:30 Cloudy with Light Rain 60 15.6 60 15.6 100 100 E 8 13 29.68 1005 4 6 0.01 0.25
9:53 am 09:53 Cloudy with Mist and Fog 60 15.6 60 15.6 100 100 ESE 7 11 29.67 1005 5 8 0.01 0.25
10:33 am 10:33 Cloudy with Mist and Fog 61 16.1 61 16.1 100 100 SE 8 13 29.71 1006 6 10 0.00 0.00
10:53 am 10:53 Cloudy with Mist and Fog 61 16.1 61 16.1 100 100 ESE 8 13 29.70 1006 5 8 0.00 0.00
11:33 am 11:33 Cloudy 62 16.7 62 16.7 100 100 VRB 7 11 29.74 1007 7 11 0.00 0.00
11:40 am 11:40 Cloudy 62 16.7 62 16.7 100 100 SE 6 9 29.74 1007 10 16 0.00 0.00
11:53 am 11:53 Cloudy 62 16.7 61 16.1 96 96 SE 7 11 29.72 1006 10 16 0.00 0.00
12:12 pm 12:12 Cloudy 62 16.7 61 16.1 96 96 SE 9 15 29.74 1007 10 16 0.00 0.00
12:49 pm 12:49 Cloudy with Light Rain 63 17 63 17 100 100 SE 7 11 29.77 1008 3 5 0.01 0.25
12:53 pm 12:53 Cloudy with Light Rain 62 16.7 62 16.7 100 100 SE 8 13 29.73 1007 3 5 0.01 0.25
1:37 pm 13:37 Cloudy 63 17.2 62 16.7 97 97 SE 9 15 29.77 1008 10 16 0.00 0.03
1:53 pm 13:53 Cloudy 64 17.8 62 16.7 93 93 SSE 9 15 29.74 1007 10 16 0.00 0.03
2:22 pm 14:22 Cloudy 64 17.8 62 16.7 93 93 SSE 7 11 29.77 1008 10 16 0.00 0.00
2:53 pm 14:53 Cloudy 63 17.2 63 17.2 100 100 SSE 6 9 29.75 1007 9 14 0.01 0.25
3:00 pm 15:00 Cloudy 64 17.8 63 17.2 96 96 SSE 6 9 29.77 1008 10 16 0.00 0.00
3:10 pm 15:10 Cloudy 64 17.8 63 17.2 96 96 VRB 6 9 29.77 1008 10 16 0.00 0.00
3:53 pm 15:53 Cloudy 64 17.8 63 17.2 96 96 SSE 3 6 29.74 1007 10 16 0.00 0.03
4:28 pm 16:28 Cloudy 63 17.2 62 16.7 97 97 SSE 5 7 29.77 1008 10 16 0.00 0.03
4:53 pm 16:53 Cloudy with Light Rain 63 17.2 62 16.7 97 97 SSW 6 9 29.76 1008 6 10 0.01 0.25
5:53 pm 17:53 Cloudy with Light Rain 62 16.7 62 16.7 100 100 SE 5 7 29.77 1008 4 6 0.01 0.25
6:34 pm 18:34 Cloudy 62 16.7 62 16.7 100 100 ESE 6 9 29.80 1009 10 16 0.00 0.03
6:53 pm 18:53 Cloudy 62 16.7 62 16.7 100 100 SSE 3 6 29.78 1008 10 16 0.00 0.03
7:53 pm 19:53 Cloudy 62 16.7 62 16.7 100 100 SSE 5 7 29.80 1009 8 13 0.00 0.00
8:22 pm 20:22 Cloudy 61 16.1 61 16.1 100 100 SE 7 11 29.83 1010 10 16 0.00 0.00
8:53 pm 20:53 Cloudy 62 16.7 62 16.7 100 100 SSE 6 9 29.81 1010 10 16 0.00 0.00
9:53 pm 21:53 Mostly Cloudy 61 16.1 61 16.1 100 100 SSE 5 7 29.83 1010 10 16 0.00 0.00
10:38 pm 22:38 Cloudy 63 17.2 61 16.1 93 93 Calm 29.85 1011 10 16 0.00 0.00
10:53 pm 22:53 Cloudy 62 16.7 62 16.7 100 100 VRB 5 7 29.83 1010 10 16 0.00 0.00
11:35 pm 23:35 Cloudy 62 16.7 62 16.7 100 100 VRB 3 6 29.85 1011 10 16 0.00 0.00
11:53 pm 23:53 Cloudy 61 16.1 61 16.1 100 100 E 5 7 29.83 1010 10 16 0.00 0.00

Powered by AerisWeather